DB0RV-13 Weather Reports


time (UTC)temp
C
wind
direction
speed
KPH
gust
KPH
rain 1hr
cm
rain 24hr
cm
rain mn
cm
humidity
%
barometer
mb
20260505235501 10 277 3.2 0.0 0.00 0.00 0.00 87 1008.3
20260505235002 10 224 4.8 0.0 0.00 0.00 0.00 88 1008.3
20260505234502 10 238 3.2 0.0 0.00 0.00 0.00 88 1008.5
20260505234001 10 300 3.2 0.0 0.00 0.00 0.00 88 1008.5
20260505233502 10 229 4.8 0.0 0.00 0.00 0.00 89 1008.5
20260505233002 10 277 1.6 0.0 0.00 0.00 0.00 89 1008.5
20260505232501 10 281 3.2 0.0 0.00 0.00 0.00 89 1008.6
20260505232002 10 316 6.4 0.0 0.00 0.00 0.00 88 1008.7
20260505231502 10 241 3.2 0.0 0.00 0.00 0.00 88 1008.7
20260505231001 10 296 3.2 0.0 0.00 0.00 0.00 88 1008.7
20260505230502 10 283 1.6 0.0 0.00 0.00 0.00 88 1008.7
20260505230002 10 267 3.2 0.0 0.00 0.00 0.00 88 1008.7
20260505225501 10 249 3.2 0.0 0.00 0.00 0.00 88 1008.7
20260505225002 10 221 3.2 0.0 0.00 0.00 0.00 87 1008.7
20260505224502 10 205 6.4 0.0 0.00 0.00 0.00 88 1008.8
20260505224001 10 237 4.8 0.0 0.00 0.00 0.00 88 1008.8
20260505223502 10 242 4.8 0.0 0.00 0.00 0.00 88 1008.8
20260505223003 10 260 3.2 0.0 0.00 0.00 0.00 88 1008.9
20260505222501 10 240 6.4 0.0 0.00 0.00 0.00 88 1008.9
20260505222002 10 250 6.4 0.0 0.00 0.00 0.00 88 1008.9
20260505221502 10 271 6.4 0.0 0.00 0.00 0.00 89 1008.9
20260505221001 10 242 6.4 0.0 0.00 0.00 0.00 88 1008.9
20260505220502 10 266 4.8 0.0 0.00 0.00 0.00 88 1008.8
20260505220002 10 254 3.2 0.0 0.00 0.00 0.00 88 1008.9
20260505215501 10 245 6.4 0.0 0.00 0.00 0.00 88 1008.8
20260505215002 10 258 6.4 0.0 0.00 0.00 0.00 88 1008.8
20260505214502 10 243 6.4 0.0 0.00 0.00 0.00 89 1008.8
20260505214001 10 240 4.8 0.0 0.00 0.00 0.00 89 1008.8
20260505213502 10 240 4.8 0.0 0.00 0.00 0.00 90 1008.9
20260505213002 10 244 3.2 0.0 0.00 0.00 0.00 90 1009.0
20260505212501 10 248 4.8 0.0 0.00 0.00 0.00 90 1008.9
20260505212002 10 266 6.4 0.0 0.00 0.00 0.00 90 1009.0
20260505211502 10 243 3.2 0.0 0.00 0.00 0.00 90 1009.0
20260505211001 10 239 6.4 0.0 0.00 0.00 0.00 90 1009.0
20260505210501 10 239 4.8 0.0 0.00 0.00 0.00 89 1008.9
20260505210002 10 218 9.7 0.0 0.00 0.00 0.00 90 1008.9
20260505205501 10 241 4.8 0.0 0.00 0.00 0.00 90 1008.9
20260505205002 10 222 4.8 0.0 0.00 0.00 0.00 90 1009.0
20260505204502 10 247 6.4 0.0 0.00 0.00 0.00 90 1009.0
20260505204001 10 256 6.4 0.0 0.00 0.00 0.00 90 1009.1
20260505203502 10 243 6.4 0.0 0.00 0.00 0.00 90 1009.1
20260505203002 10 217 6.4 0.0 0.00 0.00 0.00 91 1009.1
20260505202502 10 243 8.0 0.0 0.00 0.00 0.00 90 1009.1
20260505202002 10 233 4.8 0.0 0.00 0.00 0.00 90 1009.0
20260505201502 10 227 4.8 0.0 0.00 0.00 0.00 89 1009.1
20260505201001 11 217 6.4 0.0 0.00 0.00 0.00 87 1009.0
20260505200502 11 245 4.8 0.0 0.00 0.00 0.00 86 1009.0
20260505200003 11 238 6.4 0.0 0.00 0.00 0.00 86 1009.0
20260505195502 11 227 4.8 0.0 0.00 0.00 0.00 87 1008.9
20260505195002 11 222 3.2 0.0 0.00 0.00 0.00 88 1008.9
20260505194502 11 233 3.2 0.0 0.00 0.00 0.00 89 1009.0
20260505194002 11 272 1.6 0.0 0.00 0.00 0.00 89 1009.0
20260505193502 11 214 4.8 0.0 0.00 0.00 0.00 90 1009.0
20260505193002 11 184 4.8 0.0 0.00 0.00 0.00 90 1008.8
20260505192501 11 184 4.8 0.0 0.00 0.00 0.00 89 1008.8
20260505192002 11 198 6.4 0.0 0.00 0.00 0.00 89 1008.7
20260505191501 11 198 9.7 0.0 0.00 0.00 0.00 88 1008.7
20260505191001 11 196 8.0 0.0 0.00 0.00 0.00 85 1008.7
20260505190502 11 223 9.7 0.0 0.00 0.00 0.00 81 1008.7
20260505190002 11 248 11.3 0.0 0.00 0.00 0.00 83 1008.5
20260505185502 11 248 12.9 0.0 0.00 0.00 0.00 85 1008.8
20260505185002 11 220 11.3 0.0 0.00 0.00 0.00 83 1008.6
20260505184502 11 218 6.4 0.0 0.00 0.00 0.00 82 1008.6
20260505184001 12 227 11.3 0.0 0.00 0.00 0.00 79 1008.4
20260505183502 12 242 8.0 0.0 0.00 0.00 0.00 75 1008.4
20260505183002 13 249 9.7 0.0 0.00 0.00 0.00 72 1008.2
20260505182502 13 247 9.7 0.0 0.00 0.00 0.00 70 1008.0
20260505182001 13 258 11.3 0.0 0.00 0.00 0.00 70 1008.1
20260505181502 13 281 12.9 0.0 0.00 0.00 0.00 69 1007.9
20260505181002 14 271 11.3 0.0 0.00 0.00 0.00 69 1007.7
20260505180501 14 245 9.7 0.0 0.00 0.00 0.00 69 1007.7
20260505180002 15 250 6.4 0.0 0.00 0.00 0.00 69 1007.5
20260505175501 15 251 8.0 0.0 0.00 0.00 0.00 68 1007.6
20260505175002 15 261 6.4 0.0 0.00 0.00 0.00 67 1007.4
20260505174502 15 268 6.4 0.0 0.00 0.00 0.00 66 1007.4
20260505174002 15 272 3.2 0.0 0.00 0.00 0.00 65 1007.4
20260505173501 15 276 4.8 0.0 0.00 0.00 0.00 64 1007.4
20260505173002 15 285 8.0 0.0 0.00 0.00 0.00 63 1007.4
20260505172502 15 267 3.2 0.0 0.00 0.00 0.00 61 1007.3
20260505172002 15 315 16.1 0.0 0.00 0.00 0.00 60 1007.3
20260505171502 15 285 8.0 0.0 0.00 0.00 0.00 62 1007.1
20260505171001 15 267 16.1 0.0 0.00 0.00 0.00 65 1007.2
20260505170502 15 266 11.3 0.0 0.00 0.00 0.00 69 1007.2
20260505170002 15 256 4.8 0.0 0.00 0.00 0.00 76 1007.2
20260505165502 15 216 8.0 0.0 0.00 0.00 0.00 75 1007.0
20260505165001 15 207 8.0 0.0 0.00 0.00 0.00 74 1007.0
20260505164502 15 216 9.7 0.0 0.00 0.00 0.00 74 1006.9
20260505164002 15 222 3.2 0.0 0.00 0.00 0.00 74 1007.0
20260505163502 15 203 9.7 0.0 0.00 0.00 0.00 74 1006.9
20260505163002 15 211 11.3 0.0 0.00 0.00 0.00 73 1006.9
20260505162501 16 192 6.4 0.0 0.00 0.00 0.00 72 1006.9
20260505162002 16 0 0.0 0.0 0.00 0.00 0.00 71 1007.0
20260505161501 16 249 3.2 0.0 0.00 0.00 0.00 71 1006.9
20260505161002 15 288 4.8 0.0 0.00 0.00 0.00 71 1006.9
20260505160501 15 315 3.2 0.0 0.00 0.00 0.00 69 1006.8
20260505153001 15 154 4.8 0.0 0.00 0.00 0.00 83 1006.8
20260505152502 14 127 4.8 0.0 0.00 0.00 0.00 83 1006.7
20260505152001 14 149 4.8 0.0 0.00 0.00 0.00 82 1006.8
20260505151502 14 175 4.8 0.0 0.00 0.00 0.00 83 1006.9
20260505151002 14 207 4.8 0.0 0.00 0.00 0.00 82 1007.3
20260505150501 14 236 9.7 0.0 0.00 0.00 0.00 79 1007.3
20260505140502 16 70 1.6 0.0 0.00 0.00 0.00 67 1007.2
20260505125002 15 159 6.4 0.0 0.00 0.00 0.00 71 1007.5
20260505124501 15 268 0.0 0.0 0.00 0.00 0.00 71 1007.4
20260505124001 15 191 4.8 0.0 0.00 0.00 0.00 73 1007.5
20260505123502 15 189 1.6 0.0 0.00 0.00 0.00 71 1007.6
20260505123001 15 179 3.2 0.0 0.00 0.00 0.00 73 1007.6
20260505122502 14 181 6.4 0.0 0.00 0.00 0.00 72 1007.6
20260505122002 15 165 6.4 0.0 0.00 0.00 0.00 73 1007.6
20260505121502 15 152 3.2 0.0 0.00 0.00 0.00 71 1007.6
20260505121001 15 312 3.2 0.0 0.00 0.00 0.00 71 1007.6
20260505120502 14 25 3.2 0.0 0.00 0.00 0.00 73 1007.6
20260505120001 14 38 6.4 0.0 0.00 0.00 0.00 73 1007.6
20260505115502 14 27 6.4 0.0 0.00 0.00 0.00 73 1007.8
20260505115001 13 297 0.0 0.0 0.00 0.00 0.00 76 1007.7
20260505114501 13 271 3.2 0.0 0.00 0.00 0.00 76 1007.8
20260505114002 13 323 3.2 0.0 0.00 0.00 0.00 78 1007.8
20260505113502 13 330 3.2 0.0 0.00 0.00 0.00 78 1007.9
20260505113002 13 0 0.0 0.0 0.00 0.00 0.00 79 1007.9
20260505112501 13 223 1.6 0.0 0.00 0.00 0.00 79 1008.0
20260505112002 13 200 4.8 0.0 0.00 0.00 0.00 79 1008.1
20260505111501 13 230 6.4 0.0 0.00 0.00 0.00 80 1008.1
20260505111002 13 239 4.8 0.0 0.00 0.00 0.00 78 1008.1
20260505110501 13 210 1.6 0.0 0.00 0.00 0.00 78 1008.2
20260505102001 13 215 8.0 0.0 0.00 0.00 0.00 77 1008.2
20260505101502 12 202 6.4 0.0 0.00 0.00 0.00 76 1008.1
20260505101002 13 215 8.0 0.0 0.00 0.00 0.00 76 1008.0
20260505100502 13 162 1.6 0.0 0.00 0.00 0.00 77 1008.1
20260505100002 13 244 0.0 0.0 0.00 0.00 0.00 76 1008.1
20260505095501 12 246 1.6 0.0 0.00 0.00 0.00 76 1008.0
20260505095002 12 239 3.2 0.0 0.00 0.00 0.00 76 1008.2
20260505094501 12 241 8.0 0.0 0.00 0.00 0.00 78 1008.1
20260505094002 12 243 1.6 0.0 0.00 0.00 0.00 78 1008.2
20260505093501 12 238 1.6 0.0 0.00 0.00 0.00 79 1008.3
20260505093002 12 269 8.0 0.0 0.00 0.00 0.00 77 1008.3
20260505092502 12 239 4.8 0.0 0.00 0.00 0.00 78 1008.4
20260505092002 12 259 6.4 0.0 0.00 0.00 0.00 78 1008.4
20260505091502 12 262 9.7 0.0 0.00 0.00 0.00 79 1008.3
20260505091001 12 245 4.8 0.0 0.00 0.00 0.00 79 1008.3
20260505090502 12 248 11.3 0.0 0.00 0.00 0.00 78 1008.3
20260505090001 12 244 8.0 0.0 0.00 0.00 0.00 79 1008.4
20260505085502 12 239 8.0 0.0 0.00 0.00 0.00 80 1008.3
20260505085001 12 266 6.4 0.0 0.00 0.00 0.00 79 1008.4
20260505084502 12 244 8.0 0.0 0.00 0.00 0.00 80 1008.4
20260505084001 12 246 8.0 0.0 0.00 0.00 0.00 79 1008.4
20260505083502 12 253 6.4 0.0 0.00 0.00 0.00 79 1008.5
20260505083002 12 241 4.8 0.0 0.00 0.00 0.00 80 1008.4
20260505082502 12 239 3.2 0.0 0.00 0.00 0.00 79 1008.4
20260505082002 12 247 4.8 0.0 0.00 0.00 0.00 81 1008.5
20260505081501 12 239 3.2 0.0 0.00 0.00 0.00 82 1008.4
20260505081002 11 250 8.0 0.0 0.00 0.00 0.00 82 1008.5
20260505080501 11 230 8.0 0.0 0.00 0.00 0.00 82 1008.6
20260505080002 11 251 3.2 0.0 0.00 0.00 0.00 84 1008.6
20260505075501 11 227 4.8 0.0 0.00 0.00 0.00 83 1008.6
20260505075002 11 219 6.4 0.0 0.00 0.00 0.00 84 1008.8
20260505074501 11 240 8.0 0.0 0.00 0.00 0.00 84 1008.7
20260505074001 11 216 8.0 0.0 0.00 0.00 0.00 85 1008.8
20260505073502 11 200 6.4 0.0 0.00 0.00 0.00 85 1008.8
20260505073001 11 239 8.0 0.0 0.00 0.00 0.00 84 1008.8
20260505072502 11 244 4.8 0.0 0.00 0.00 0.00 84 1008.9
20260505072001 11 244 4.8 0.0 0.00 0.00 0.00 85 1008.8
20260505071502 11 242 4.8 0.0 0.00 0.00 0.00 83 1008.9
20260505071001 11 242 3.2 0.0 0.00 0.00 0.00 82 1008.9
20260505070502 11 217 1.6 0.0 0.00 0.00 0.00 81 1008.9
20260505070001 11 349 3.2 0.0 0.00 0.00 0.00 82 1008.9
20260505065501 11 300 1.6 0.0 0.00 0.00 0.00 82 1008.9
20260505065002 10 0 0.0 0.0 0.00 0.00 0.00 83 1008.8
20260505064501 10 126 0.0 0.0 0.00 0.00 0.00 83 1009.0
20260505064002 10 118 0.0 0.0 0.00 0.00 0.00 82 1009.0
20260505063501 10 0 0.0 0.0 0.00 0.00 0.00 83 1009.0
20260505063002 10 0 0.0 0.0 0.00 0.00 0.00 83 1009.0
20260505062501 10 116 3.2 0.0 0.00 0.00 0.00 83 1009.0
20260505062002 10 122 3.2 0.0 0.00 0.00 0.00 83 1008.9
20260505061501 10 134 1.6 0.0 0.00 0.00 0.00 84 1009.0
20260505061001 9 152 3.2 0.0 0.00 0.00 0.00 83 1009.1
20260505060501 9 134 4.8 0.0 0.00 0.00 0.00 83 1009.0
20260505060001 10 132 1.6 0.0 0.00 0.00 0.00 83 1009.1
20260505055502 10 131 3.2 0.0 0.00 0.00 0.00 82 1009.2
20260505055001 10 114 1.6 0.0 0.00 0.00 0.00 83 1009.1
20260505054502 9 194 1.6 0.0 0.00 0.00 0.00 84 1009.2
20260505054001 8 160 1.6 0.0 0.00 0.00 0.00 85 1009.1
20260505053502 8 101 1.6 0.0 0.00 0.00 0.00 85 1009.1
20260505053001 8 67 1.6 0.0 0.00 0.00 0.00 86 1009.2
20260505052501 8 357 0.0 0.0 0.00 0.00 0.00 87 1009.1
20260505052001 8 26 0.0 0.0 0.00 0.00 0.00 88 1009.1
20260505051501 7 0 0.0 0.0 0.00 0.00 0.00 88 1009.1
20260505051002 7 62 1.6 0.0 0.00 0.00 0.00 88 1009.0
20260505050501 7 82 1.6 0.0 0.00 0.00 0.00 88 1009.1
20260505041502 7 36 1.6 0.0 0.00 0.00 0.00 92 1009.2
20260505041001 7 23 4.8 0.0 0.00 0.00 0.00 92 1009.2
20260505040502 7 336 3.2 0.0 0.00 0.00 0.00 91 1009.2
20260505040001 7 323 4.8 0.0 0.00 0.00 0.00 91 1009.3
20260505035502 7 327 4.8 0.0 0.00 0.00 0.00 91 1009.2
20260505035001 7 318 1.6 0.0 0.00 0.00 0.00 91 1009.3
20260505034501 7 295 1.6 0.0 0.00 0.00 0.00 89 1009.3
20260505034002 7 355 3.2 0.0 0.00 0.00 0.00 89 1009.3
20260505033502 8 54 1.6 0.0 0.00 0.00 0.00 89 1009.4
20260505033002 8 52 3.2 0.0 0.00 0.00 0.00 89 1009.3
20260505032501 8 0 0.0 0.0 0.00 0.00 0.00 88 1009.5
20260505032002 8 26 1.6 0.0 0.00 0.00 0.00 89 1009.4
20260505031502 8 0 0.0 0.0 0.00 0.00 0.00 90 1009.5
20260505031001 7 313 4.8 0.0 0.00 0.00 0.00 88 1009.5
20260505030502 7 314 3.2 0.0 0.00 0.00 0.00 88 1009.6
20260505030002 8 339 3.2 0.0 0.00 0.00 0.00 88 1009.7
20260505025501 8 42 3.2 0.0 0.00 0.00 0.00 87 1009.7
20260505025002 8 0 0.0 0.0 0.00 0.00 0.00 88 1009.8
20260505024502 8 13 3.2 0.0 0.00 0.00 0.00 88 1009.8
20260505024001 8 54 0.0 0.0 0.00 0.00 0.00 87 1009.9
20260505023502 8 148 0.0 0.0 0.00 0.00 0.00 88 1010.0
20260505023002 8 146 1.6 0.0 0.00 0.00 0.00 87 1009.9
20260505022501 8 130 1.6 0.0 0.00 0.00 0.00 87 1010.0
20260505022002 8 107 1.6 0.0 0.00 0.00 0.00 87 1010.0
20260505021502 8 29 1.6 0.0 0.00 0.00 0.00 87 1010.0
20260505021001 8 71 1.6 0.0 0.00 0.00 0.00 88 1010.0
20260505020502 8 62 4.8 0.0 0.00 0.00 0.00 88 1010.0
20260505020002 8 33 3.2 0.0 0.00 0.00 0.00 89 1010.0
20260505015501 8 345 6.4 0.0 0.00 0.00 0.00 87 1010.0
20260505015002 8 355 3.2 0.0 0.00 0.00 0.00 87 1010.0
20260505014502 8 331 3.2 0.0 0.00 0.00 0.00 85 1010.2
20260505014001 8 320 1.6 0.0 0.00 0.00 0.00 86 1010.1
20260505013502 8 331 3.2 0.0 0.00 0.00 0.00 85 1010.2
20260505013002 8 335 3.2 0.0 0.00 0.00 0.00 85 1010.4
20260505012501 8 303 1.6 0.0 0.00 0.00 0.00 83 1010.5
20260505012002 8 40 3.2 0.0 0.00 0.00 0.00 83 1010.4
20260505011502 8 60 1.6 0.0 0.00 0.00 0.00 84 1010.5
20260505011001 8 306 0.0 0.0 0.00 0.00 0.00 83 1010.6
20260505010502 8 75 4.8 0.0 0.00 0.00 0.00 84 1010.6
20260505010003 9 131 3.2 0.0 0.00 0.00 0.00 83 1010.6
20260505005501 10 71 3.2 0.0 0.00 0.00 0.00 85 1010.7
20260505005002 10 72 4.8 0.0 0.00 0.00 0.00 85 1010.6
20260505004502 10 0 0.0 0.0 0.00 0.00 0.00 87 1010.8
20260505004001 10 294 3.2 0.0 0.00 0.00 0.00 85 1011.0
20260505003502 10 344 3.2 0.0 0.00 0.00 0.00 85 1010.9
20260505003002 9 321 3.2 0.0 0.00 0.00 0.00 84 1011.1
20260505002501 10 340 4.8 0.0 0.00 0.00 0.00 83 1010.9
20260505002002 10 309 3.2 0.0 0.00 0.00 0.00 86 1011.0
20260505001502 10 297 3.2 0.0 0.00 0.00 0.00 84 1011.0
20260505001001 10 340 3.2 0.0 0.00 0.00 0.00 81 1011.0
20260505000502 10 19 4.8 0.0 0.00 0.00 0.00 81 1011.0
20260505000002 10 22 3.2 0.0 0.00 0.00 0.00 82 1010.9